Wetbulb
66.62 61.57 63.36 61.71 56.55 57.26 55.56 57.19 59.30 58.19 58.50 61.19 61.97 62.20 62.82 64.51 62.91 61.96 73.56 73.30 73.13 75.37 77.77 76.69 77.12 77.43 77.63 78.00 77.85 77.55 77.27 76.90 76.60 76.57 76.47 76.27 76.59 76.72 76.64 76.62 76.22 75.42 74.27 72.92 72.17 71.27 71.19 72.00 72.68
61.24 61.03 62.02 59.04 54.15 53.24 55.56 58.25 57.95 58.38 59.51 60.97 61.33 61.07 62.86 62.96 67.73 70.79 72.03 73.02 74.36 75.95 77.58 76.24 76.82 77.05 77.42 77.65 77.59 77.37 77.15 76.92 76.75 76.59 76.37 76.37 76.52 76.54 76.29 76.14 75.59 74.67 73.14 72.33 71.33 70.36 70.14 70.51 71.59
59.37 60.45 57.06 55.21 53.60 53.01 54.99 55.95 56.74 57.91 60.79 60.51 59.21 61.66 62.43 63.48 66.81 70.68 74.52 73.82 75.07 76.24 77.01 76.80 76.62 76.74 77.15 77.29 77.31 77.13 77.19 76.97 77.02 76.74 76.59 76.39 76.44 76.39 76.21 75.99 75.29 73.64 72.77 71.85 70.75 70.12 69.62 69.20 68.98
58.46 58.90 57.83 51.11 50.89 53.92 56.80 56.47 56.44 57.50 59.80 61.14 60.29 58.32 62.73 65.70 65.71 70.66 74.91 74.59 75.42 75.74 76.38 76.23 76.41 76.64 76.77 76.69 77.11 76.98 77.04 77.04 76.91 76.87 76.54 76.29 76.36 76.11 75.70 75.24 74.96 74.06 72.47 71.60 70.89 70.29 69.75 69.11 68.54
58.49 56.31 51.62 50.44 50.55 51.73 55.89 57.46 56.76 56.31 57.12 58.60 59.69 58.30 60.89 65.40 72.10 73.55 75.04 75.16 75.14 75.20 76.25 77.60 76.28 76.36 76.44 76.49 76.39 76.68 76.78 76.58 76.64 76.62 76.31 76.19 75.93 75.58 75.23 74.69 74.00 73.40 72.64 71.84 71.16 70.48 70.04 69.37 68.37
53.62 54.27 48.81 47.66 49.20 51.49 54.20 56.38 56.32 55.67 56.17 57.71 57.52 57.40 60.99 65.88 70.71 73.90 75.60 75.69 75.13 74.94 76.02 77.22 76.26 76.04 75.91 76.14 76.13 76.00 76.10 76.10 76.08 76.03 75.91 75.81 75.58 75.18 74.86 74.59 73.99 73.66 73.28 72.26 71.28 70.68 70.28 69.73 68.64
51.01 49.69 46.87 47.89 48.73 51.36 53.29 56.18 54.85 54.72 54.97 55.20 57.45 56.51 61.53 63.63 66.18 73.84 75.00 75.64 74.88 74.97 75.82 77.14 75.87 75.98 75.80 75.63 75.59 75.54 75.43 75.54 75.67 75.64 75.49 75.40 75.25 74.93 74.63 74.64 74.54 73.89 73.33 72.35 71.45 70.67 70.16 69.75 69.14
53.67 51.47 46.73 47.60 46.00 47.85 53.19 54.67 55.42 54.42 53.64 56.70 57.33 57.01 58.72 59.65 64.43 71.81 74.76 75.31 74.88 74.66 74.94 76.70 76.03 75.17 74.94 75.07 75.62 75.56 75.46 75.38 75.41 75.46 75.32 75.14 74.61 74.22 73.99 74.02 73.99 73.19 72.63 71.94 71.71 71.14 70.66 70.48 70.14
54.72 48.16 45.62 46.42 47.12 47.70 52.31 51.06 53.89 54.45 53.15 54.43 56.39 56.71 57.82 59.24 66.83 70.24 72.61 73.75 74.03 73.53 74.25 76.06 75.99 75.54 75.06 74.84 75.00 75.24 75.15 75.37 75.31 75.19 75.10 74.59 73.32 73.56 73.69 72.98 73.87 73.12 72.61 72.00 71.80 71.74 72.03 71.48 71.29
50.95 47.95 47.85 50.14 50.36 49.51 50.68 50.47 51.36 51.07 51.56 52.75 54.88 57.58 58.06 58.42 64.39 67.21 70.38 70.93 72.20 72.43 73.12 74.82 76.17 75.84 75.13 73.90 75.09 74.25 73.69 73.96 74.21 74.46 74.71 73.93 72.87 73.23 72.58 73.46 72.99 73.07 72.99 72.59 72.37 72.22 71.95 71.51 72.41
50.47 47.98 50.46 50.42 51.16 51.46 50.21 49.79 51.97 49.77 49.84 52.50 52.95 55.57 56.93 57.66 59.88 66.12 67.68 70.57 71.27 72.92 73.61 74.40 75.71 76.86 76.02 74.59 74.60 73.76 73.15 72.94 73.70 74.55 74.98 74.28 72.71 73.87 73.47 73.08 73.36 73.16 73.20 72.47 72.95 73.16 73.17 74.13 74.53
47.10 50.15 50.52 50.58 50.88 50.48 49.70 51.16 49.78 50.96 51.44 53.88 53.69 55.05 56.34 56.89 58.86 60.46 65.87 67.89 71.37 72.17 73.38 74.65 75.99 76.78 76.94 75.42 74.47 74.17 73.18 73.25 73.01 73.17 74.72 74.03 73.34 73.82 72.84 71.92 72.40 73.67 73.11 73.13 73.21 72.45 74.20 75.25 75.45
47.64 49.00 49.42 50.33 49.96 49.86 50.54 49.14 49.76 50.32 53.06 54.34 54.59 54.75 55.60 55.64 57.18 60.84 62.91 65.33 70.60 72.07 73.49 74.57 75.80 76.55 76.79 76.56 75.10 74.84 74.31 73.79 74.43 74.28 75.06 74.38 73.30 73.28 73.06 73.10 72.70 72.55 72.26 72.29 71.86 73.13 74.64 75.05 75.45
49.63 49.24 49.18 49.84 50.14 50.33 48.75 49.59 49.61 51.29 53.60 53.47 53.76 54.38 55.15 55.59 56.42 58.52 61.88 63.73 66.63 71.76 72.84 75.10 75.69 76.76 76.70 76.96 77.17 75.73 75.52 75.35 74.92 74.50 74.80 75.53 74.65 74.59 73.38 73.46 72.86 73.06 72.44 71.94 71.74 72.31 73.31 73.92 74.94
48.93 46.46 48.79 49.38 50.07 49.54 50.69 47.65 48.01 51.95 52.71 52.62 53.24 54.08 54.55 55.47 56.58 57.38 59.21 62.72 66.09 68.58 73.12 74.63 75.29 76.16 76.76 76.24 76.06 76.91 75.59 75.54 74.82 74.76 75.89 75.86 75.85 75.98 75.51 74.07 73.83 73.60 74.00 73.64 72.72 72.62 72.82 73.35 74.14
46.48 46.73 44.38 48.55 48.04 48.90 48.42 44.50 49.57 51.79 51.78 51.62 52.22 53.05 53.56 54.94 56.19 58.15 59.69 61.66 64.56 68.39 71.82 74.93 74.68 75.72 76.48 76.33 76.15 75.67 75.35 75.27 75.08 74.04 74.69 75.90 75.65 76.53 76.78 74.72 74.40 74.72 74.22 73.15 71.50 70.42 70.27 72.08 72.86
46.22 42.28 43.75 44.73 47.72 47.28 46.71 45.02 49.37 51.83 51.76 51.50 52.81 53.41 53.56 54.64 56.53 58.86 60.70 61.08 62.66 65.42 69.58 74.12 75.66 75.35 75.85 76.34 76.15 76.04 76.53 75.61 74.84 75.50 75.09 75.04 75.37 76.23 76.60 74.53 75.08 75.77 72.74 71.61 70.84 70.60 71.84 72.03 73.49
42.06 42.29 42.90 42.55 46.73 47.30 46.33 46.32 49.06 51.27 51.46 51.93 52.59 53.23 53.75 54.38 55.56 57.93 59.92 61.21 62.08 63.43 65.66 69.06 73.10 75.67 76.35 76.02 75.83 75.35 74.79 74.78 74.74 74.51 74.28 75.24 75.59 75.28 75.54 74.53 74.67 73.37 72.13 71.05 71.10 72.18 74.13 73.87 72.99
44.08 42.94 42.88 45.59 47.83 46.58 46.55 46.96 48.82 51.07 51.47 51.41 52.19 52.96 53.57 54.52 56.64 58.04 59.14 60.56 61.17 63.08 65.04 66.40 67.13 73.53 74.97 74.36 73.71 73.56 72.90 73.74 73.87 74.11 74.43 73.96 72.98 73.46 74.40 73.25 73.45 73.01 71.89 72.39 74.18 73.99 74.20 72.35 72.91
44.08 43.06 43.45 46.22 47.72 46.74 46.63 46.40 49.23 50.48 51.12 51.86 52.18 52.88 53.58 54.52 55.78 56.93 58.29 59.26 61.08 62.72 64.48 65.78 67.39 68.88 73.31 73.66 73.89 73.63 73.19 73.50 74.17 74.57 74.85 74.28 73.92 73.66 73.06 72.96 73.12 73.54 71.55 73.66 74.41 74.61 70.97 71.24 73.16
44.11 43.04 43.64 43.69 46.32 47.67 46.30 44.76 47.08 49.79 51.28 51.82 52.67 53.52 54.10 54.41 54.98 56.33 57.24 58.88 60.38 61.47 63.23 64.73 66.72 68.64 69.73 73.49 72.91 73.64 73.81 74.16 73.63 73.83 73.74 74.13 73.94 74.03 73.47 73.72 74.61 74.31 74.11 73.52 74.07 72.64 71.00 66.58 68.39
41.93 46.02 45.12 44.17 43.38 40.26 46.84 38.59 45.73 48.21 49.13 50.60 52.06 53.00 53.67 54.57 55.70 56.45 56.92 57.84 59.24 60.05 61.51 63.57 65.24 66.97 68.21 70.51 71.95 74.65 72.02 70.29 71.76 73.42 73.92 74.38 73.97 73.53 73.78 74.18 74.49 75.97 74.62 75.04 74.09 72.96 72.06 70.79 66.92
43.52 46.41 45.06 44.81 43.64 43.60 43.71 41.61 44.90 49.07 46.86 48.93 51.36 52.74 53.95 54.98 54.97 55.99 57.30 58.46 59.41 60.62 61.27 62.85 64.53 66.01 67.56 68.64 71.24 71.10 72.20 70.26 71.11 71.85 74.75 75.53 75.61 73.98 73.70 74.50 74.61 74.81 73.98 75.17 73.53 73.24 72.64 69.25 67.30
47.58 45.81 46.14 46.35 44.55 38.27 42.97 42.37 42.93 46.01 48.25 50.17 52.06 52.39 52.92 54.30 55.26 56.25 57.80 58.64 58.91 60.12 61.26 63.25 64.02 64.58 65.73 67.04 68.19 70.62 72.17 72.44 69.99 71.34 71.57 72.82 74.19 74.62 74.71 74.53 74.72 74.62 73.30 72.78 72.64 73.51 73.15 71.54 71.17
46.63 44.04 38.08 37.52 38.49 37.67 45.45 42.89 44.50 48.59 50.14 50.65 50.94 51.81 53.68 53.65 54.19 54.85 55.87 57.04 58.20 59.29 60.76 62.37 63.24 63.78 65.10 65.22 65.59 66.75 69.71 72.69 74.01 73.74 71.47 73.48 72.24 72.33 74.78 74.73 74.32 73.58 73.96 73.72 73.38 73.19 72.72 72.58 71.46
45.73 45.22 39.48 32.62 34.01 38.48 44.87 40.08 44.40 49.16 50.35 51.27 52.02 52.92 52.97 53.04 53.60 54.12 55.13 55.98 57.25 58.54 59.45 60.12 61.53 62.64 63.99 64.28 64.71 65.44 65.91 66.92 69.71 72.26 71.10 71.09 71.14 71.83 74.63 74.07 73.87 74.07 73.63 73.44 73.47 72.45 72.38 73.27 71.45
44.74 42.48 46.49 40.43 41.93 38.18 41.25 44.98 48.52 50.09 49.85 50.33 50.91 50.93 51.51 52.72 53.58 53.72 55.10 56.15 56.84 57.81 59.09 59.62 60.39 61.78 63.25 63.94 64.66 64.78 65.19 66.20 68.02 72.01 72.42 71.53 72.83 70.51 70.85 71.39 71.05 71.15 71.07 71.01 72.06 71.03 71.40 71.90 72.04
45.04 47.31 39.48 40.53 32.20 31.39 38.81 39.99 41.69 45.08 46.24 48.71 49.36 49.22 50.70 52.45 52.65 53.47 54.35 55.69 56.94 57.53 58.34 59.62 60.25 60.11 61.73 62.67 63.45 64.34 65.02 65.95 67.70 69.41 70.00 69.99 69.16 69.00 63.81 67.78 68.72 68.58 68.55 68.90 69.43 69.26 69.64 69.67 69.80
42.75 41.47 42.36 41.56 40.02 33.22 32.85 38.38 46.95 46.59 48.00 47.97 48.46 49.76 50.99 51.65 52.08 52.80 54.43 55.61 56.41 57.33 57.50 58.06 58.61 59.09 59.04 60.36 62.43 62.74 63.84 64.06 65.94 66.87 67.54 66.76 66.16 65.16 63.40 63.96 63.97 64.24 64.74 65.87 66.74 67.14 66.49 66.56 67.97
45.88 43.23 42.22 35.94 36.36 40.02 37.78 37.79 49.22 49.18 48.72 48.80 49.41 50.23 51.16 51.66 52.13 52.84 54.03 55.22 55.55 55.94 56.58 56.81 57.30 57.02 58.25 59.19 59.92 61.60 62.38 62.44 62.40 62.85 63.90 64.80 65.11 65.07 64.28 63.99 63.59 63.14 63.25 64.50 64.93 64.63 64.30 64.70 65.21
MSLP
1009.90 1008.81 1007.89 1006.80 1005.48 1003.69 1001.83 1001.71 1002.15 1002.02 1001.97 1002.48 1002.82 1002.31 1001.78 1001.93 1001.49 1002.47 1004.59 1005.19 1005.71 1006.41 1007.64 1009.06 1009.78 1010.21 1010.50 1010.73 1010.89 1011.20 1011.54 1011.90 1012.16 1012.43 1012.81 1013.09 1013.17 1013.41 1013.73 1013.93 1014.08 1014.35 1014.48 1014.69 1014.92 1015.04 1015.15 1015.27 1015.32
1009.72 1008.71 1007.37 1006.04 1004.51 1002.56 1001.58 1002.45 1002.32 1002.64 1002.69 1002.95 1002.89 1002.67 1002.34 1002.29 1003.00 1003.84 1004.59 1005.55 1006.05 1006.76 1007.68 1008.51 1009.80 1010.23 1010.66 1011.09 1011.27 1011.43 1011.63 1012.02 1012.37 1012.60 1012.91 1013.17 1013.32 1013.48 1013.73 1014.03 1014.33 1014.56 1014.69 1014.82 1015.09 1015.19 1015.32 1015.49 1015.56
1009.53 1008.79 1006.96 1005.31 1003.93 1002.48 1001.70 1003.29 1003.39 1003.26 1003.09 1002.79 1002.59 1002.83 1002.77 1002.80 1003.53 1003.57 1004.55 1005.67 1006.22 1007.01 1007.71 1008.43 1009.77 1010.24 1010.69 1011.09 1011.45 1011.65 1011.76 1012.07 1012.43 1012.80 1013.06 1013.30 1013.51 1013.74 1013.88 1014.15 1014.46 1014.64 1014.75 1014.99 1015.27 1015.51 1015.68 1015.69 1015.76
1008.78 1007.74 1007.17 1005.73 1003.85 1003.75 1003.48 1004.09 1004.03 1003.43 1003.32 1003.21 1002.90 1002.58 1003.15 1003.54 1003.56 1004.08 1005.06 1005.70 1006.23 1006.80 1007.56 1008.91 1009.69 1010.21 1010.74 1011.33 1011.52 1011.63 1011.94 1012.33 1012.61 1012.79 1013.03 1013.38 1013.71 1014.05 1014.25 1014.39 1014.61 1014.78 1014.91 1015.07 1015.36 1015.58 1015.77 1015.88 1015.97
1008.67 1007.61 1006.11 1005.31 1004.54 1005.16 1004.86 1004.80 1004.53 1003.90 1003.78 1003.48 1003.49 1002.75 1002.85 1003.69 1004.40 1004.72 1005.37 1005.80 1006.07 1006.60 1007.22 1008.80 1009.76 1009.98 1010.46 1011.06 1011.63 1011.90 1012.04 1012.40 1012.93 1013.16 1013.24 1013.36 1013.53 1013.97 1014.34 1014.64 1014.80 1014.98 1015.14 1015.27 1015.38 1015.54 1015.73 1015.93 1016.11
1007.83 1007.26 1005.99 1005.08 1004.99 1005.59 1005.29 1005.23 1005.01 1004.38 1004.16 1003.93 1003.77 1003.66 1003.15 1004.13 1004.37 1005.05 1005.50 1005.86 1005.97 1006.47 1007.13 1008.34 1009.79 1010.27 1010.78 1011.05 1011.40 1011.77 1012.21 1012.51 1012.77 1013.22 1013.50 1013.62 1013.82 1013.99 1014.19 1014.48 1014.88 1015.11 1015.36 1015.46 1015.52 1015.63 1015.72 1015.91 1016.03
1007.91 1007.06 1005.59 1005.21 1004.86 1004.89 1005.16 1005.51 1005.11 1004.77 1004.55 1004.32 1004.59 1003.76 1003.37 1004.01 1005.05 1005.37 1005.63 1006.06 1006.33 1006.95 1007.54 1008.43 1009.45 1010.29 1010.79 1011.12 1011.62 1011.81 1012.06 1012.51 1012.87 1013.16 1013.54 1013.88 1014.21 1014.35 1014.45 1014.57 1014.83 1015.05 1015.31 1015.61 1015.80 1015.87 1015.93 1016.01 1016.09
1007.89 1007.02 1006.01 1005.97 1005.74 1004.96 1005.11 1005.80 1005.68 1005.60 1004.97 1005.45 1004.89 1003.93 1003.77 1004.90 1005.17 1005.41 1005.78 1005.95 1006.44 1007.00 1007.47 1008.31 1009.01 1009.63 1010.32 1011.01 1011.65 1011.93 1012.19 1012.51 1012.81 1013.22 1013.59 1014.01 1014.38 1014.78 1014.93 1014.99 1015.15 1015.30 1015.49 1015.71 1015.89 1015.90 1015.95 1016.00 1016.08
1008.25 1006.87 1005.80 1005.74 1005.85 1005.35 1006.03 1005.80 1006.13 1006.51 1005.94 1005.55 1005.19 1004.85 1004.87 1005.11 1005.29 1005.09 1005.48 1005.81 1006.07 1006.67 1007.18 1007.82 1008.42 1008.94 1009.55 1010.15 1011.17 1011.97 1012.21 1012.42 1012.86 1013.17 1013.63 1014.00 1013.79 1014.15 1014.56 1014.70 1015.05 1015.41 1015.61 1015.62 1015.73 1015.90 1015.96 1015.89 1015.79
1007.55 1006.38 1005.39 1005.72 1006.10 1006.08 1006.40 1006.77 1006.50 1006.65 1005.65 1005.36 1005.24 1004.93 1004.77 1004.85 1004.94 1004.85 1004.88 1005.29 1005.56 1006.22 1006.69 1007.27 1008.01 1008.57 1009.06 1009.56 1010.31 1011.30 1011.71 1011.95 1012.18 1012.49 1012.92 1013.27 1013.17 1013.33 1013.74 1014.27 1015.12 1015.41 1015.60 1015.75 1015.70 1015.71 1015.76 1015.80 1014.31
1007.15 1006.15 1005.69 1006.65 1006.77 1006.76 1006.57 1006.81 1006.54 1006.61 1005.64 1005.10 1005.25 1004.95 1004.92 1004.85 1004.57 1004.71 1004.19 1004.39 1005.11 1005.77 1006.49 1006.98 1007.91 1008.40 1008.74 1009.14 1009.73 1010.41 1010.79 1011.36 1011.90 1012.09 1012.39 1012.72 1012.70 1013.01 1013.66 1013.67 1014.21 1014.65 1015.30 1014.59 1014.92 1014.80 1014.78 1013.94 1014.01
1007.09 1006.65 1006.50 1006.47 1006.72 1006.84 1006.63 1006.45 1006.20 1006.00 1005.92 1005.57 1005.69 1005.57 1005.32 1004.93 1004.41 1004.17 1004.29 1003.98 1004.67 1005.43 1006.13 1006.86 1007.66 1008.41 1008.66 1008.59 1009.35 1009.66 1009.96 1010.46 1011.12 1011.64 1012.34 1012.31 1012.64 1012.91 1012.60 1012.72 1013.09 1013.67 1013.66 1013.94 1014.27 1013.83 1013.97 1014.16 1014.03
1007.14 1006.35 1006.81 1006.82 1006.88 1006.65 1006.63 1006.34 1006.05 1005.87 1005.65 1005.49 1005.39 1005.59 1005.23 1005.17 1004.85 1004.55 1004.93 1004.57 1004.22 1005.38 1005.89 1006.61 1007.23 1008.03 1008.57 1008.86 1008.81 1009.11 1009.49 1009.91 1010.34 1010.97 1011.54 1011.80 1012.07 1012.66 1012.86 1012.64 1012.67 1012.72 1012.89 1013.19 1013.64 1013.75 1013.80 1013.78 1013.70
1006.70 1006.63 1006.57 1006.54 1006.49 1006.51 1006.45 1005.73 1006.05 1005.43 1005.34 1005.22 1005.25 1004.93 1004.91 1004.87 1004.79 1004.62 1004.73 1004.96 1005.01 1005.52 1005.82 1006.41 1006.90 1007.72 1008.23 1008.56 1008.61 1008.91 1009.11 1009.26 1009.80 1010.14 1010.55 1011.34 1011.49 1011.89 1012.26 1012.88 1012.95 1012.87 1012.68 1012.73 1012.90 1013.30 1013.70 1013.39 1013.38
1007.06 1006.81 1006.21 1006.11 1005.95 1005.78 1005.75 1005.33 1005.09 1005.05 1005.09 1005.06 1004.81 1004.84 1004.88 1004.91 1004.87 1004.65 1004.39 1004.46 1005.02 1005.17 1005.51 1006.14 1006.54 1007.12 1007.75 1008.08 1008.47 1008.57 1008.78 1008.88 1009.06 1009.25 1010.31 1010.69 1011.16 1011.35 1011.66 1011.85 1012.11 1012.31 1012.55 1012.81 1012.90 1013.01 1013.38 1013.58 1013.16
1006.97 1006.63 1005.39 1004.61 1005.56 1005.53 1006.03 1004.15 1003.83 1004.61 1004.89 1004.72 1004.75 1004.82 1004.90 1004.75 1004.65 1004.70 1004.59 1004.49 1004.67 1005.03 1005.06 1005.47 1005.81 1006.44 1007.10 1007.22 1007.71 1008.01 1007.97 1008.35 1008.44 1009.34 1010.15 1011.01 1010.56 1010.61 1010.96 1010.97 1011.10 1011.39 1012.08 1012.40 1012.58 1012.49 1012.68 1012.84 1012.83
1006.37 1005.27 1004.77 1004.46 1005.41 1005.36 1005.41 1003.82 1004.21 1004.99 1004.95 1004.67 1004.57 1004.35 1004.35 1004.39 1004.46 1004.52 1004.77 1004.69 1004.67 1005.09 1005.17 1005.21 1005.80 1005.90 1006.47 1007.20 1007.44 1007.77 1007.83 1007.99 1007.75 1008.43 1009.23 1009.65 1009.48 1009.43 1010.30 1009.52 1009.99 1010.77 1012.13 1012.21 1012.04 1012.42 1012.48 1012.22 1012.78
1004.69 1005.00 1004.80 1004.84 1004.96 1005.27 1004.73 1004.17 1004.09 1004.09 1004.11 1004.08 1004.03 1004.06 1004.09 1004.11 1004.13 1004.13 1004.66 1004.83 1004.83 1004.98 1005.27 1005.57 1005.57 1005.83 1006.17 1006.61 1007.15 1007.18 1007.16 1007.47 1007.45 1007.63 1007.88 1008.24 1008.55 1009.18 1009.94 1009.94 1010.31 1010.79 1010.68 1011.60 1011.23 1011.63 1012.38 1011.65 1012.01
1005.98 1005.75 1005.19 1005.01 1005.26 1005.41 1004.71 1004.07 1003.71 1003.74 1003.65 1003.36 1003.51 1003.53 1003.64 1003.57 1003.68 1003.92 1004.29 1004.80 1005.01 1005.08 1005.17 1005.32 1005.44 1005.52 1005.93 1006.02 1006.10 1006.33 1006.20 1006.51 1006.86 1006.89 1007.04 1007.39 1008.04 1008.29 1009.08 1009.35 1009.61 1010.26 1010.40 1010.25 1010.39 1011.11 1012.16 1011.82 1011.73
1006.46 1005.87 1005.24 1005.08 1005.17 1005.23 1004.45 1003.67 1003.43 1003.35 1003.23 1003.09 1003.06 1003.00 1003.09 1003.08 1003.13 1003.40 1003.77 1004.03 1004.51 1004.75 1004.70 1004.69 1004.88 1005.14 1005.26 1005.31 1005.43 1005.28 1005.37 1005.53 1006.05 1006.35 1006.55 1006.71 1007.16 1007.67 1008.26 1008.59 1008.81 1009.57 1009.36 1010.35 1010.60 1010.51 1010.87 1010.76 1011.60
1006.01 1005.59 1005.17 1005.09 1004.95 1004.75 1004.51 1003.42 1002.85 1002.53 1002.54 1002.78 1002.80 1002.65 1002.67 1002.72 1002.88 1003.21 1003.49 1003.82 1004.23 1004.26 1004.40 1004.44 1004.49 1004.58 1004.88 1004.75 1004.82 1005.26 1005.33 1005.21 1004.98 1005.35 1005.67 1005.93 1006.21 1006.61 1007.26 1007.72 1008.11 1008.83 1009.25 1009.65 1009.89 1010.10 1009.87 1009.95 1010.65
1005.19 1005.16 1005.37 1005.29 1004.94 1003.73 1003.43 1002.16 1002.01 1001.83 1001.65 1001.86 1002.11 1001.95 1002.02 1002.30 1002.64 1003.28 1003.68 1003.81 1003.86 1003.90 1003.88 1004.10 1004.23 1004.33 1004.35 1004.47 1004.36 1004.26 1004.06 1004.05 1004.13 1004.37 1004.54 1004.88 1005.36 1005.73 1006.30 1007.02 1007.59 1008.11 1008.26 1008.25 1008.84 1009.33 1009.39 1009.73 1009.78
1005.16 1005.13 1005.41 1005.17 1004.65 1003.99 1003.20 1001.97 1001.04 1000.93 1001.01 1001.43 1001.53 1001.61 1001.91 1002.91 1003.59 1003.85 1003.92 1003.94 1003.72 1003.73 1003.67 1003.72 1003.94 1004.11 1004.18 1004.14 1004.07 1003.80 1003.88 1003.50 1003.45 1003.17 1003.50 1004.21 1004.73 1005.21 1005.72 1006.42 1006.88 1007.29 1007.96 1007.83 1008.27 1008.39 1008.94 1008.67 1009.57
1005.31 1005.34 1004.96 1004.63 1004.07 1002.85 1002.31 1001.45 1000.45 1000.17 1000.14 1000.29 1000.84 1001.61 1002.80 1003.62 1003.94 1004.13 1004.11 1003.97 1003.59 1003.35 1003.23 1003.52 1003.77 1003.93 1003.94 1003.95 1003.83 1003.68 1003.30 1003.05 1002.81 1002.46 1002.60 1002.89 1003.43 1004.34 1005.00 1005.55 1006.09 1006.52 1007.06 1007.37 1007.77 1008.30 1008.49 1008.75 1008.61
1005.18 1005.14 1003.96 1003.15 1002.28 1000.98 1000.97 1000.31 1000.03 1000.39 1000.59 1000.85 1001.12 1001.88 1003.28 1003.86 1003.87 1004.09 1004.04 1003.87 1003.83 1003.57 1003.54 1003.47 1003.33 1003.41 1003.50 1003.52 1003.49 1003.37 1003.19 1003.06 1002.58 1002.41 1002.19 1002.25 1002.75 1003.07 1003.91 1004.87 1005.43 1005.94 1006.49 1006.91 1007.29 1007.52 1007.77 1008.10 1008.39
1003.93 1004.08 1003.65 1002.73 1002.40 1001.40 1001.32 1000.09 999.88 1000.56 1001.35 1002.08 1002.69 1003.11 1003.59 1004.01 1004.39 1004.31 1004.11 1004.03 1003.87 1003.70 1003.67 1003.61 1003.44 1003.31 1003.21 1003.16 1003.08 1002.98 1002.96 1002.49 1002.01 1001.77 1001.78 1001.96 1001.82 1002.61 1003.22 1004.26 1004.61 1005.26 1005.55 1006.06 1006.48 1006.83 1007.01 1007.36 1007.73
1004.79 1004.47 1004.89 1004.85 1004.17 1002.47 1001.59 1000.30 999.80 1000.29 1001.18 1002.44 1002.99 1003.85 1004.09 1004.46 1004.29 1004.02 1003.91 1003.92 1004.02 1003.86 1003.66 1003.58 1003.43 1003.22 1003.06 1002.94 1002.73 1002.54 1002.45 1002.14 1001.67 1001.31 1001.56 1001.69 1001.79 1001.86 1003.13 1003.83 1004.07 1004.66 1005.33 1005.74 1006.15 1006.20 1006.30 1006.75 1007.06
1005.88 1005.92 1006.07 1005.80 1004.70 1002.98 1001.43 1000.39 1000.00 1000.90 1001.67 1002.79 1003.52 1004.02 1004.58 1004.66 1004.23 1003.93 1003.61 1003.49 1003.68 1003.67 1003.69 1003.49 1003.33 1002.85 1002.75 1002.58 1002.49 1002.20 1002.01 1001.77 1001.84 1001.80 1001.76 1001.65 1002.04 1002.01 1003.11 1003.68 1004.03 1004.27 1005.11 1005.55 1006.01 1006.02 1006.17 1006.42 1006.47
1006.21 1006.50 1006.89 1007.34 1006.61 1005.15 1003.25 1001.73 1001.88 1002.19 1002.85 1003.56 1004.13 1004.46 1004.68 1004.56 1004.31 1003.98 1003.68 1003.68 1003.60 1003.59 1003.71 1003.73 1003.64 1002.97 1002.65 1002.51 1002.10 1002.11 1002.17 1002.14 1001.99 1002.00 1001.85 1001.95 1001.79 1001.97 1002.61 1003.07 1004.64 1003.99 1004.59 1005.29 1005.76 1005.92 1005.63 1005.80 1006.22
1006.55 1006.57 1007.07 1007.67 1006.89 1006.11 1004.94 1003.04 1002.57 1003.14 1003.83 1004.14 1004.23 1004.45 1004.53 1004.63 1004.47 1004.09 1004.07 1004.16 1004.19 1004.12 1003.97 1003.74 1003.83 1003.59 1003.20 1002.74 1002.48 1001.99 1001.80 1001.83 1002.05 1002.20 1001.77 1001.40 1001.43 1001.88 1002.33 1002.77 1004.06 1003.93 1004.02 1004.86 1005.41 1005.52 1005.33 1005.61 1005.80
Wind_Speed
15 12 8 7 8 7 12 5 5 4 6 4 2 7 6 8 8 5 6 11 14 17 19 18 14 12 11 11 13 15 16 16 17 16 15 15 14 13 12 10 10 10 10 9 9 9 8 8 9
11 11 7 4 9 10 10 3 8 1 3 1 3 3 4 5 4 9 11 10 15 17 17 19 15 14 12 10 11 14 16 16 15 15 15 14 13 13 12 11 10 10 10 9 8 8 8 8 8
8 8 8 5 8 11 2 5 1 5 2 2 3 3 1 4 5 4 8 12 16 16 17 17 15 14 14 13 13 13 15 16 15 15 14 13 12 11 11 10 10 10 9 9 8 7 6 7 7
4 5 5 10 11 3 4 4 2 1 3 3 4 5 5 4 1 4 14 14 16 17 17 18 16 15 14 13 13 14 14 13 14 15 14 13 11 10 9 9 9 8 9 9 9 7 6 5 5
5 4 10 10 12 3 5 2 4 2 1 2 5 6 4 7 6 7 14 13 15 16 16 17 15 17 17 16 14 12 14 13 12 12 13 13 12 11 10 9 9 8 8 9 8 8 7 6 5
6 5 10 14 14 8 8 5 7 5 1 2 2 5 5 8 5 7 10 11 14 16 16 17 16 14 13 14 15 15 13 13 13 11 11 11 11 11 11 11 9 8 7 7 8 7 7 6 6
11 8 14 16 13 14 9 3 9 5 6 1 7 6 5 12 7 3 7 8 11 13 14 15 17 15 13 14 13 13 14 13 12 12 10 8 7 8 9 9 9 8 7 6 6 6 6 6 6
6 7 11 10 12 18 7 9 2 8 5 7 3 5 5 10 4 6 7 9 11 13 14 15 15 16 15 14 12 13 12 12 12 10 9 8 7 5 5 4 6 6 6 6 6 6 6 6 6
5 8 11 17 14 10 4 9 5 3 10 6 6 5 5 8 5 8 9 10 12 12 14 14 16 16 15 15 14 13 15 14 11 11 9 9 10 11 11 8 9 6 5 6 6 6 7 7 9
11 11 12 2 7 7 3 6 8 7 7 10 8 8 7 6 3 9 11 11 13 15 16 14 15 15 15 12 14 14 13 13 13 13 13 11 11 9 7 6 7 5 5 6 7 7 8 9 9
11 13 7 7 6 6 7 10 10 9 11 7 8 9 8 7 4 8 12 14 13 13 12 15 14 14 16 13 10 9 9 9 10 14 13 12 8 8 8 6 7 7 10 7 10 9 9 6 5
10 14 9 7 6 10 11 9 9 11 11 9 5 8 11 8 5 6 11 13 11 12 13 14 15 14 15 11 11 11 10 10 9 12 13 9 7 7 7 7 7 6 5 5 5 5 4 6 6
14 9 8 9 10 10 10 11 12 8 10 8 7 5 7 5 8 4 8 13 10 12 12 14 15 15 14 14 11 12 11 10 11 11 13 11 10 8 8 6 6 6 6 6 5 5 5 5 6
6 8 9 8 11 9 12 13 5 10 8 9 6 6 5 6 7 8 6 9 12 11 12 13 15 15 16 15 14 11 12 12 12 12 13 15 10 9 8 8 7 6 7 6 5 5 6 5 5
5 10 12 14 14 11 10 16 15 13 6 11 10 8 7 8 8 10 11 8 10 13 13 14 15 16 16 18 16 12 12 12 13 13 14 15 13 11 10 9 9 8 7 7 6 7 7 7 7
9 7 12 7 4 6 8 13 6 3 8 10 7 7 6 7 8 9 12 13 9 10 13 14 13 17 18 17 14 12 13 12 11 7 9 17 17 15 14 11 10 10 9 8 7 6 6 6 5
11 13 11 8 3 7 10 8 5 7 7 7 9 8 7 7 8 7 9 11 14 10 11 11 14 15 16 15 12 13 14 12 12 12 14 19 17 17 14 12 10 11 8 8 7 6 6 4 6
8 11 10 13 6 6 10 13 12 11 12 12 12 10 10 9 10 8 6 8 9 9 9 12 12 13 13 10 11 11 11 12 12 13 14 17 14 15 13 10 9 7 11 10 9 7 7 7 5
8 11 13 11 8 10 15 15 13 13 13 14 13 13 12 12 11 9 8 6 7 9 7 7 12 13 11 10 11 12 12 12 12 13 17 17 16 17 14 11 10 10 12 8 11 10 10 6 3
12 14 15 12 11 9 15 17 15 13 17 16 16 15 15 14 13 12 12 11 8 10 11 10 11 13 13 11 11 11 11 11 11 12 13 16 17 16 14 11 11 13 10 12 12 10 9 4 3
15 16 14 13 13 13 17 20 20 18 18 14 16 18 16 16 13 12 10 9 10 10 11 12 11 9 12 14 11 10 11 9 12 13 12 15 18 17 16 15 12 12 12 12 14 13 11 8 8
16 12 12 15 15 14 10 15 17 17 16 14 18 17 14 12 10 9 11 12 12 11 10 10 11 11 10 12 12 15 13 14 13 13 13 13 19 18 17 16 16 14 13 12 13 13 11 11 11
14 9 10 12 15 17 18 15 14 18 11 14 13 13 8 7 4 7 10 12 13 12 11 10 9 10 11 12 14 13 16 14 14 14 15 14 14 17 17 16 16 14 12 11 11 10 11 9 12
8 11 16 17 14 17 19 20 14 13 13 13 10 7 3 4 6 7 9 10 11 12 11 9 9 10 11 11 14 16 17 16 15 15 13 13 13 12 16 16 14 14 13 13 11 11 11 12 11
13 13 13 16 15 16 17 14 11 13 15 13 11 6 2 4 6 8 9 10 10 10 11 10 10 11 9 10 13 16 17 18 18 17 14 13 14 12 14 16 15 13 14 13 12 12 13 14 14
16 11 13 21 17 19 21 21 11 3 3 5 3 6 5 6 8 8 10 11 12 11 11 12 11 12 11 11 12 13 16 14 15 16 14 14 13 12 12 15 14 14 13 12 11 10 10 11 12
11 15 13 19 21 22 19 24 17 14 13 8 6 4 6 9 11 11 11 9 11 11 12 11 11 11 10 10 10 12 13 16 15 15 13 13 11 10 13 14 12 11 11 11 11 11 12 12 11
15 13 10 9 9 17 11 11 8 4 4 4 5 4 7 10 13 15 15 14 12 11 11 11 11 9 11 9 7 8 8 10 9 9 14 14 12 10 6 8 7 10 11 11 11 11 12 13 11
11 13 14 13 15 11 18 11 6 5 2 3 4 6 10 14 14 14 14 13 14 13 12 10 12 12 9 11 9 6 6 7 7 11 13 10 9 10 10 12 10 9 11 11 11 12 13 14 13
15 17 17 8 11 11 13 12 14 5 5 3 9 13 15 13 14 14 13 11 11 10 12 11 9 10 11 9 10 11 8 8 8 8 6 7 8 9 8 9 13 12 11 11 12 12 12 13 12
Wind_Direction
291 309 299 252 239 238 237 178 342 175 179 66 50 296 349 357 349 22 113 141 139 150 151 163 151 150 149 151 154 155 151 153 153 153 155 157 149 150 152 145 144 148 141 138 135 128 126 133 139
310 306 239 274 252 218 210 69 200 30 29 266 198 220 227 84 52 97 139 145 155 150 156 166 155 148 148 154 153 156 150 150 152 153 155 156 153 154 153 152 154 153 147 139 136 134 142 150 151
276 283 274 270 248 251 213 167 335 328 125 189 183 306 110 95 106 96 96 149 155 159 161 156 155 147 148 155 155 153 148 148 152 153 155 156 156 156 156 156 158 157 149 143 144 147 156 154 154
272 208 211 249 239 268 311 131 348 39 98 18 6 148 146 51 79 68 142 154 157 165 165 138 156 148 149 157 156 149 142 147 153 156 157 159 158 158 156 155 156 160 157 155 153 154 157 155 155
223 252 251 242 245 223 248 255 315 279 325 10 316 109 114 107 66 122 150 161 166 165 168 158 165 157 155 157 155 148 146 147 156 160 160 163 162 161 159 161 162 168 167 163 157 161 164 165 169
214 266 232 232 231 215 235 235 281 261 306 344 332 305 96 95 101 126 157 170 173 166 168 161 164 159 155 155 158 154 153 154 156 161 166 169 170 169 167 164 170 172 173 168 170 173 173 177 179
251 234 245 249 237 244 239 242 253 285 269 56 321 275 107 90 38 140 164 167 167 166 171 161 173 169 159 158 161 160 158 159 161 164 169 175 182 179 173 170 171 174 173 174 185 188 191 199 205
239 246 246 237 238 248 214 247 256 255 283 322 264 198 171 357 350 161 183 169 174 174 178 171 179 177 179 176 168 167 165 166 169 170 168 167 171 191 183 167 184 187 184 191 206 209 214 218 225
231 233 232 228 234 247 200 245 146 296 266 277 283 276 340 332 321 176 177 181 180 182 183 186 181 181 186 181 177 176 176 172 172 175 176 171 202 187 181 198 137 191 206 208 222 233 240 237 232
216 229 240 255 245 241 190 277 304 281 246 261 247 257 282 311 265 240 191 193 192 187 187 187 190 185 188 187 175 195 191 194 194 194 189 209 208 197 212 148 157 195 211 231 238 243 250 247 254
206 243 230 213 243 245 263 260 250 254 256 236 270 278 287 303 256 253 229 212 198 191 196 193 191 189 196 194 184 192 192 197 200 203 200 201 201 187 196 198 190 205 196 227 194 206 224 243 298
231 237 249 253 250 252 251 264 255 240 257 257 279 300 290 283 279 254 234 236 207 201 203 197 189 195 202 196 193 194 199 196 199 200 202 202 202 205 214 198 199 196 200 223 235 245 241 258 248
231 235 233 244 254 254 266 250 261 251 250 250 287 261 242 256 295 298 284 281 237 214 208 207 198 197 199 211 197 204 201 197 202 201 197 209 208 207 200 213 221 208 200 200 233 245 245 252 256
181 247 242 239 239 231 249 253 212 229 208 249 248 237 237 277 282 287 242 250 245 239 225 215 205 199 203 206 215 205 201 196 204 203 203 205 205 198 205 203 211 229 219 221 214 234 273 258 273
226 253 236 239 237 236 249 256 221 245 237 255 253 251 258 254 272 273 286 274 245 233 231 216 212 203 208 207 210 211 206 217 204 210 206 196 204 201 209 206 210 213 210 225 219 211 225 254 248
238 244 251 146 222 213 227 259 203 225 225 225 239 242 240 254 263 281 287 283 270 257 227 221 209 205 208 211 205 212 214 208 212 186 166 210 203 209 202 210 210 201 201 209 220 218 217 241 260
205 259 213 246 216 254 224 270 147 184 215 246 249 247 252 264 260 254 278 278 272 267 261 232 222 219 212 213 217 217 218 217 213 202 202 212 212 201 231 211 189 177 211 207 200 222 224 211 247
260 220 237 255 167 235 260 255 257 257 258 252 249 260 267 267 264 267 259 277 276 270 266 256 249 226 226 219 216 226 220 218 222 214 215 214 215 214 219 219 204 199 198 207 191 201 218 192 213
272 265 262 262 263 262 264 265 265 272 264 255 251 257 267 269 267 267 253 253 262 280 267 253 240 238 221 216 218 218 220 219 224 223 221 212 214 213 206 217 201 196 213 215 180 183 214 206 189
241 252 256 270 268 271 271 270 269 260 264 260 263 260 261 265 262 256 265 265 260 278 272 256 233 232 223 220 226 233 224 226 228 230 226 222 217 218 215 220 208 207 199 201 195 176 184 171 144
239 254 265 267 285 268 264 264 255 248 239 256 260 258 261 267 274 270 288 286 297 285 277 276 271 254 238 237 226 226 238 241 223 222 220 220 217 211 211 204 210 192 206 193 191 188 184 185 195
253 233 258 265 273 273 292 287 281 275 266 243 254 257 258 257 276 307 300 296 292 281 287 276 264 261 241 237 236 232 229 231 224 226 224 222 212 209 206 213 208 208 202 220 207 208 228 241 234
262 293 259 272 273 280 267 261 266 258 254 250 247 251 274 4 312 302 315 313 302 297 288 280 275 269 265 258 236 235 232 243 237 232 230 211 201 209 209 207 209 210 223 221 239 231 224 218 245
265 265 257 264 266 260 268 266 269 265 271 280 258 251 78 330 311 329 324 323 315 302 295 292 278 274 272 257 252 242 247 239 248 233 232 214 212 198 207 207 208 210 215 227 220 230 225 232 229
231 261 268 258 243 255 255 264 293 312 296 277 275 329 34 320 327 335 338 338 336 339 326 313 306 297 290 275 266 260 253 251 245 242 222 233 209 202 194 204 201 205 214 225 222 216 223 219 229
272 253 270 282 288 292 295 275 256 110 320 6 348 321 313 337 346 336 336 334 327 334 337 330 319 313 307 295 280 269 263 254 246 238 239 228 221 203 198 200 202 211 211 213 213 223 222 214 214
269 255 276 288 272 271 272 267 252 240 224 211 229 259 323 326 326 327 330 326 326 324 324 326 324 316 315 308 295 279 269 256 256 249 222 227 211 180 180 193 192 200 214 222 228 232 227 234 227
258 283 269 248 278 272 262 273 274 199 285 197 225 305 319 324 328 329 325 334 335 335 322 333 320 318 309 300 291 288 287 264 245 238 217 208 189 185 154 200 205 200 214 223 228 238 229 241 234
256 242 261 286 270 268 278 271 40 325 145 176 279 311 318 326 327 327 327 334 333 333 336 353 338 325 340 327 305 273 263 247 249 233 219 214 187 180 169 181 220 217 214 219 225 239 246 226 236
265 273 274 248 252 254 282 273 302 175 180 240 305 319 321 320 326 332 325 311 312 324 329 332 341 346 346 348 333 310 243 229 209 222 206 180 170 181 187 185 200 208 209 214 221 225 231 232 235